Rifle, CO

12:43 PM MDT on October 20, 2017 (GMT -0600)
Garfield County Regional

Weather History for KRIL - February, 2014

Change the Weather History Date:

Sunday, February 9, 2014

  Actual Average Record
Temperature  
Mean Temperature 40 °F 29 °F  
Max Temperature 46 °F 40 °F 64 °F (2017)
Min Temperature 34 °F 17 °F -10 °F (1949)
Degree Days  
Heating Degree Days 25 36  
Month to date heating degree days 382 335  
Since 1 July heating degree days 4673 4370  
Cooling Degree Days 0 0  
Month to date cooling degree days 0 0  
Year to date cooling degree days 0 0  
Moisture  
Dew Point 33 °F    
Average Humidity 75    
Maximum Humidity 92    
Minimum Humidity 58    
Precipitation  
Precipitation 0.06 in 0.03 in 0.65 in (1932)
Month to date precipitation 0.19 0.21  
Year to date precipitation 1.18 1.02  
Sea Level Pressure  
Sea Level Pressure 30.00 in    
Wind  
Wind Speed 6 mph (SSW)    
Max Wind Speed 30 mph    
Max Gust Speed 35 mph    
Visibility 10 miles    
Events Rain    
T = Trace of Precipitation, MM = Missing Value Source: NWS Daily Summary

Daily Weather History Graph

Daily Weather History Graph

Search for Another Location

Airport or City:

Trip Planner

Search our weather history database for the weather conditions in past years. The results will help you decide how hot, cold, wet, or windy it might be!

Date:

Astronomy

Feb. 09, 2014 Rise Set
Actual Time 7:10 AM MST 5:40 PM MST
Civil Twilight 6:42 AM MST 6:08 PM MST
Nautical Twilight 6:10 AM MST 6:40 PM MST
Astronomical Twilight 5:39 AM MST 7:11 PM MST
Moon 1:23 PM MST (2/9) 3:17 AM MST (2/9)
Length of Visible Light 11h 26m
Length of Day
10h 30m
Waxing Gibbous, 77% of the Moon is Illuminated
Feb 9
Waxing Gibbous
Feb 14
Full
Feb 22
Last Quarter
Mar 1
New
Mar 8
First Quarter

Hourly Weather History & Observations

Time (MST) Temp. Windchill Dew Point Humidity Pressure Visibility Wind Dir Wind Speed Gust Speed Precip Events Conditions
12:53 AM 39.0 °F 36.8 °F 30.9 °F 73% 29.98 in 10.0 mi Variable 3.5 mph - 0.00 in Rain Light Rain
1:29 AM 37.9 °F 34.4 °F 32.0 °F 79% 30.00 in 10.0 mi WNW 4.6 mph - 0.01 in Rain Light Rain
1:38 AM 37.9 °F 33.5 °F 32.0 °F 79% 30.01 in 10.0 mi Variable 5.8 mph - 0.01 in Rain Light Rain
1:53 AM 39.9 °F 31.8 °F 32.0 °F 73% 29.97 in 10.0 mi WSW 15.0 mph - 0.01 in Rain Light Rain
2:01 AM 39.0 °F 34.8 °F 32.0 °F 76% 30.00 in 10.0 mi SW 5.8 mph - 0.00 in   Overcast
2:53 AM 39.9 °F 37.8 °F 32.0 °F 73% 29.97 in 10.0 mi SSW 3.5 mph - 0.00 in   Overcast
3:53 AM 41.0 °F 38.0 °F 30.9 °F 67% 29.95 in 10.0 mi North 4.6 mph - N/A   Scattered Clouds
4:53 AM 37.9 °F 31.5 °F 30.9 °F 76% 29.97 in 10.0 mi SW 9.2 mph - N/A   Partly Cloudy
5:53 AM 36.0 °F 29.6 °F 30.9 °F 82% 29.97 in 10.0 mi SSW 8.1 mph - N/A   Clear
6:53 AM 36.0 °F 27.5 °F 30.0 °F 79% 29.97 in 10.0 mi SW 12.7 mph - N/A   Clear
7:53 AM 37.0 °F 33.3 °F 30.0 °F 76% 30.00 in 10.0 mi ESE 4.6 mph - N/A   Clear
8:53 AM 37.9 °F - 30.9 °F 76% 30.01 in 10.0 mi Calm Calm - N/A   Mostly Cloudy
9:53 AM 39.9 °F 37.8 °F 30.9 °F 70% 30.01 in 10.0 mi NE 3.5 mph - N/A   Overcast
10:53 AM 42.1 °F - 30.9 °F 65% 29.98 in 10.0 mi Calm Calm - N/A   Clear
11:53 AM 44.1 °F 42.5 °F 30.0 °F 58% 29.95 in 10.0 mi NNE 3.5 mph - N/A   Scattered Clouds
12:53 PM 45.0 °F 43.5 °F 30.0 °F 56% 29.91 in 10.0 mi Variable 3.5 mph - N/A   Overcast
1:53 PM 45.0 °F 43.5 °F 30.0 °F 56% 29.89 in 10.0 mi Variable 3.5 mph - N/A   Mostly Cloudy
2:53 PM 39.9 °F 30.0 °F 34.0 °F 79% 29.92 in 10.0 mi WSW 21.9 mph - 0.00 in Rain Light Rain
3:53 PM 39.0 °F 32.8 °F 34.0 °F 82% 29.95 in 5.0 mi WSW 9.2 mph 20.7 mph 0.03 in Rain Light Rain
4:27 PM 37.9 °F 32.7 °F 34.0 °F 86% 29.97 in 10.0 mi WSW 6.9 mph - 0.01 in Rain Light Rain
4:53 PM 37.0 °F 32.4 °F 34.0 °F 89% 29.98 in 10.0 mi West 5.8 mph - 0.02 in Rain Light Rain
5:50 PM 37.4 °F 31.4 °F 33.8 °F 87% 30.01 in 10.0 mi West 8.1 mph - 0.00 in Rain Light Rain
5:53 PM 37.0 °F 31.0 °F 34.0 °F 89% 30.01 in 10.0 mi West 8.1 mph - 0.00 in Rain Light Rain
6:01 PM 36.0 °F 29.0 °F 34.0 °F 93% 30.01 in 10.0 mi West 9.2 mph - 0.00 in Rain Light Rain
6:33 PM 37.0 °F 31.6 °F 35.1 °F 93% 30.03 in 10.0 mi WSW 6.9 mph - 0.00 in   Overcast
6:40 PM 37.0 °F 34.5 °F 34.0 °F 89% 30.03 in 10.0 mi Variable 3.5 mph - 0.00 in   Overcast
6:51 PM 37.4 °F 34.9 °F 35.6 °F 93% 30.03 in 10.0 mi NNE 3.5 mph - 0.00 in   Overcast
6:53 PM 37.0 °F 34.5 °F 34.0 °F 89% 30.03 in 10.0 mi NNE 3.5 mph - 0.00 in   Overcast
7:13 PM 37.9 °F - 35.1 °F 89% 30.03 in 10.0 mi Calm Calm - N/A   Overcast
7:22 PM 37.9 °F - 35.1 °F 89% 30.03 in 10.0 mi Calm Calm - N/A   Overcast
7:53 PM 37.0 °F 32.4 °F 34.0 °F 89% 30.03 in 10.0 mi SSE 5.8 mph - N/A   Mostly Cloudy
8:03 PM 36.0 °F - 34.0 °F 93% 30.03 in 10.0 mi Calm Calm - N/A   Overcast
8:13 PM 37.0 °F 32.4 °F 34.0 °F 89% 30.03 in 10.0 mi South 5.8 mph - 0.00 in Rain Light Rain
8:21 PM 37.0 °F 33.3 °F 34.0 °F 89% 30.03 in 10.0 mi South 4.6 mph - 0.00 in Rain Light Rain
8:33 PM 37.9 °F 35.5 °F 34.0 °F 86% 30.03 in 10.0 mi SW 3.5 mph - 0.00 in Rain Light Rain
8:53 PM 37.9 °F - 34.0 °F 86% 30.02 in 10.0 mi Calm Calm - 0.00 in   Overcast
9:22 PM 36.0 °F 32.1 °F 34.0 °F 93% 30.03 in 10.0 mi ENE 4.6 mph - N/A   Overcast
9:50 PM 35.6 °F 32.8 °F 33.8 °F 93% 30.04 in 10.0 mi ESE 3.5 mph - N/A   Overcast
9:51 PM 36.0 °F 33.3 °F 34.0 °F 93% 30.03 in 10.0 mi SE 3.5 mph - N/A   Overcast
10:00 PM 36.0 °F 32.1 °F 34.0 °F 93% 30.04 in 10.0 mi SE 4.6 mph - N/A   Overcast
10:11 PM 35.1 °F 29.3 °F 33.1 °F 92% 30.03 in 10.0 mi SSE 6.9 mph - N/A   Overcast
10:22 PM 36.0 °F 33.3 °F 33.1 °F 89% 30.04 in 10.0 mi SSE 3.5 mph - N/A   Overcast
10:53 PM 36.0 °F 32.1 °F 33.1 °F 89% 30.03 in 10.0 mi SE 4.6 mph - N/A   Overcast
11:06 PM 35.1 °F 31.0 °F 33.1 °F 92% 30.04 in 10.0 mi East 4.6 mph - N/A   Overcast
11:53 PM 35.1 °F 30.1 °F 33.1 °F 92% 30.02 in 10.0 mi ESE 5.8 mph - N/A   Overcast